CAPE
1431 1297 1251 1172 1092 972 942 878 734 644 613 578 574 614 660 732 680 612 554 529 573 655 646 623 617 598 679 878 945 916 985 1019 1110 1074 996 956 935 873 824 774 730 672
1468 1390 1270 1220 1154 1098 1060 964 835 680 701 656 636 661 691 694 710 616 587 604 684 748 804 681 561 561 663 785 744 724 824 847 924 1012 995 966 964 910 825 739 708 722
1522 1465 1388 1298 1201 1173 1125 1059 960 870 771 717 674 622 650 676 616 566 590 640 738 857 804 580 479 488 584 589 592 709 823 896 938 1024 1022 982 967 982 870 815 768 782
1584 1530 1502 1421 1348 1263 1204 1129 1088 982 850 767 738 675 591 614 682 528 364 547 708 900 904 663 486 471 473 565 708 710 783 891 1030 1026 950 930 876 741 888 874 856 797
1178 1177 1247 1398 1430 1344 1263 1244 1190 1110 971 885 820 734 648 691 753 755 738 718 796 943 1021 920 660 509 529 627 750 839 844 956 1036 1063 991 906 768 798 820 846 895 895
528 742 762 1037 1213 1276 1289 1319 1338 1215 1030 952 867 776 722 822 884 937 970 963 1005 1074 1098 1084 1040 984 912 836 874 902 911 964 1049 1049 960 843 841 916 924 901 952 962
1072 784 819 1074 1202 1213 1207 1296 1369 1286 1141 925 822 757 759 880 959 1036 1079 1112 1133 1175 1173 1139 1072 989 937 923 914 912 950 1003 1100 1083 899 860 841 873 888 857 899 862
800 1089 822 951 1236 1243 1268 1274 1242 1267 1205 1029 832 756 762 843 950 1014 1062 1097 1133 1161 1171 1180 1161 993 888 875 913 931 981 1054 1062 939 912 901 889 874 802 657 618 662
1076 1164 1196 1138 1263 1286 1342 1292 1218 1231 1222 1110 938 819 754 784 865 958 1032 1083 1124 1149 1161 1184 1174 1136 1090 1039 986 905 978 1016 1036 1031 1040 1027 973 912 940 880 760 768
1283 1037 1162 1308 1210 1227 1183 1156 1209 1100 1154 1116 984 913 837 834 793 842 928 1017 1081 1124 1139 1145 1138 1111 1106 1022 973 1034 944 1015 1104 1123 1099 1036 952 924 991 956 814 746
878 970 1072 1143 1169 1182 1216 1225 1134 1059 1065 1095 1039 928 862 834 860 890 910 918 1010 1066 1086 1091 1104 1058 949 1002 1264 1296 1044 1088 1142 1131 1064 1010 996 1069 1108 1070 967 827
1036 1025 1190 1376 1456 1473 1449 1408 1263 1066 964 959 958 898 820 790 832 861 893 926 961 1008 1047 1072 1074 1003 966 1075 1341 1411 1258 1054 1086 1061 1024 1036 1105 1264 1369 1329 1046 1025
866 868 1066 1202 1270 1338 1429 1487 1470 1429 1274 1100 1016 856 781 793 818 846 904 925 941 968 1018 1078 1102 1055 1105 1246 1431 1485 1421 1335 1196 1127 1121 1154 1206 1362 1423 1410 1396 1371
966 946 871 902 1019 1151 1236 1339 1354 1326 1373 1394 1304 1093 953 828 836 868 909 918 938 953 1002 1055 1081 1086 1162 1294 1436 1508 1467 1441 1429 1374 1282 1217 1235 1372 1464 1488 1466 1482
745 992 1018 942 844 878 986 1141 1256 1274 1288 1345 1335 1318 1267 1148 1052 1034 967 913 930 959 1008 1026 1038 1072 1147 1278 1438 1511 1484 1461 1524 1538 1487 1443 1347 1347 1483 1534 1549 1568
374 534 820 953 1017 923 866 843 978 1134 1201 1232 1119 1030 998 1103 1214 1199 1109 941 833 909 1000 1036 1030 1069 1155 1281 1397 1441 1399 1408 1485 1572 1600 1566 1479 1410 1489 1558 1620 1653
96 321 415 556 713 876 986 984 948 897 878 926 959 962 1039 1131 1250 1334 1321 1263 1129 891 913 1008 1063 1112 1196 1294 1380 1407 1349 1315 1382 1508 1611 1609 1548 1488 1482 1557 1673 1685
0 0 187 298 366 437 572 761 905 951 928 900 900 931 983 1026 1082 1147 1184 1248 1304 1292 1132 948 1007 1098 1192 1262 1321 1336 1328 1318 1355 1449 1571 1591 1552 1532 1524 1566 1676 1730
0 0 0 59 211 272 307 342 452 657 823 868 864 888 927 970 1022 1016 1061 1128 1170 1191 1162 1123 1043 1129 1216 1306 1312 1273 1317 1351 1386 1444 1526 1581 1579 1538 1506 1553 1667 1747
0 0 0 0 0 115 211 253 324 387 494 652 798 872 869 878 893 940 999 1064 1102 1094 1085 1060 1051 1149 1231 1324 1381 1365 1299 1346 1398 1424 1462 1512 1576 1584 1531 1517 1575 1649
0 0 0 0 0 0 0 34 212 244 264 373 547 725 848 900 895 863 868 912 999 1070 1104 1089 1062 1055 1142 1231 1311 1353 1347 1274 1339 1384 1415 1484 1534 1581 1599 1536 1540 1554
0 0 0 0 0 0 0 0 0 38 152 157 185 346 614 754 861 896 878 834 848 936 1060 1105 1061 1034 1056 1098 1182 1258 1304 1318 1294 1293 1369 1424 1495 1565 1589 1580 1565 1537
0 0 0 0 0 0 0 0 0 0 0 0 17 28 166 373 589 733 775 764 730 765 880 1012 1006 1001 994 1046 1087 1123 1207 1278 1310 1268 1246 1326 1387 1454 1522 1570 1563 1534
0 0 0 0 0 0 0 0 0 0 0 0 0 1 13 31 82 353 513 565 637 672 703 808 910 936 871 865 944 983 1092 1179 1241 1269 1235 1170 1230 1300 1399 1491 1516 1515
0 0 0 0 0 0 0 0 0 0 0 0 0 0 2 19 34 157 281 334 410 600 682 713 751 812 808 743 785 886 945 1053 1108 1168 1210 1208 1162 1146 1217 1333 1435 1469
0 0 0 0 0 0 0 0 0 0 0 0 0 0 0 0 10 70 203 275 277 378 544 571 575 610 624 652 649 734 863 935 1009 1063 1154 1202 1166 1128 1144 1165 1247 1365
Wind_Speed
24 21 19 18 17 16 15 13 11 10 10 10 9 9 9 10 12 12 11 15 17 18 19 19 19 19 19 18 17 18 18 17 18 18 18 19 18 18 16 15 16 15
28 26 23 22 20 19 17 16 15 10 9 9 9 10 10 10 11 12 13 13 16 17 20 20 18 18 19 19 18 18 17 18 17 19 20 19 18 18 16 17 17 17
30 29 28 24 21 20 18 17 17 15 11 9 9 10 10 10 11 10 13 14 14 17 18 18 17 17 19 20 19 17 17 18 18 20 20 18 19 19 18 19 19 18
33 34 31 27 24 21 19 18 17 17 16 13 11 10 10 10 9 8 10 13 14 15 18 18 15 16 18 18 19 17 17 19 21 23 23 22 20 17 15 18 19 19
38 37 28 22 21 21 21 20 19 19 19 17 14 12 11 11 8 8 10 11 12 14 16 15 14 16 17 17 18 18 18 21 23 24 20 19 19 17 17 18 18 18
29 26 24 22 21 21 19 18 17 18 18 18 16 13 11 11 10 9 9 8 9 11 12 14 15 15 16 16 18 18 19 20 22 21 19 19 17 17 18 18 17 17
24 28 26 24 22 21 18 17 16 16 15 15 17 14 13 11 11 10 10 9 9 10 10 12 12 13 15 16 16 16 18 20 22 21 20 18 17 15 16 18 17 16
23 25 24 23 22 22 20 19 20 19 18 18 16 15 15 12 10 11 10 10 10 9 9 10 11 12 16 17 17 17 19 22 22 20 18 16 15 14 16 17 17 17
18 20 21 19 18 22 21 20 20 21 22 22 18 16 15 13 12 11 11 10 10 9 8 8 9 11 14 16 16 16 16 17 17 15 14 14 14 14 17 18 17 17
17 17 14 12 11 15 17 19 21 20 22 23 21 20 17 13 12 12 11 10 10 10 9 9 9 9 11 11 11 11 11 11 11 11 12 13 14 16 19 20 18 18
15 18 19 16 13 13 14 17 19 21 21 22 22 21 19 16 12 12 12 11 10 9 9 10 10 11 10 10 10 10 10 10 10 11 12 13 15 16 20 20 19 18
18 18 18 19 19 16 14 15 18 19 19 21 22 21 19 17 15 13 12 11 10 9 8 9 11 13 13 12 12 12 11 11 11 11 11 12 14 16 18 19 18 16
18 18 19 21 21 20 19 17 16 17 18 17 18 20 20 17 15 14 13 12 10 10 9 8 9 12 13 14 14 14 12 12 11 10 10 11 11 12 14 15 15 14
17 18 20 22 23 23 22 20 20 19 18 18 19 17 19 18 15 14 13 13 11 10 9 9 8 9 12 13 13 13 12 11 11 10 9 9 9 8 8 10 11 12
23 20 20 22 25 26 24 22 22 20 19 18 18 16 17 18 16 15 14 12 12 11 10 11 9 9 11 13 13 12 11 10 10 9 9 9 8 7 8 10 11 12
34 30 26 25 26 28 27 25 24 23 21 19 17 16 15 16 17 17 16 14 13 12 12 12 11 11 11 11 12 13 11 11 10 10 10 10 10 9 9 10 11 12
nan 40 37 33 30 29 30 30 28 26 25 22 19 18 17 16 16 17 18 17 15 14 13 12 12 13 11 11 10 10 12 11 11 10 11 11 11 11 11 11 11 11
nan nan 44 41 38 35 32 33 33 32 29 26 24 21 19 18 17 16 18 19 18 16 14 13 13 13 13 12 11 9 10 11 11 11 9 9 11 12 12 12 12 11
nan nan nan nan 43 41 38 37 38 37 34 31 28 26 25 22 19 17 17 19 19 18 16 15 15 16 16 15 13 12 9 10 12 11 9 8 9 10 12 13 13 12
nan nan nan nan nan 44 42 41 40 39 38 36 34 32 29 26 24 21 20 20 20 19 17 17 17 17 19 18 16 15 13 13 13 12 11 9 8 8 9 11 13 14
nan nan nan nan nan nan nan nan 41 41 41 40 39 36 34 31 28 26 25 24 22 21 19 17 18 19 21 22 21 19 17 17 16 15 14 12 11 10 9 9 12 13
nan nan nan nan nan nan nan nan nan nan 43 42 42 41 39 37 32 29 28 28 28 26 22 18 18 20 20 22 24 23 23 24 20 17 16 15 14 12 11 11 12 13
nan nan nan nan nan nan nan nan nan nan nan nan nan nan 43 41 38 33 31 31 31 31 26 22 21 21 21 21 24 27 32 29 25 23 20 17 16 15 15 15 14 14
nan nan nan nan nan nan nan nan nan nan nan nan nan nan nan nan nan 39 35 33 32 31 29 26 25 27 26 23 24 28 34 34 30 26 23 20 19 19 18 17 16 14
nan nan nan nan nan nan nan nan nan nan nan nan nan nan nan nan nan 44 39 36 34 32 29 28 29 30 30 28 26 30 33 33 33 31 26 23 23 21 21 21 19 18
nan nan nan nan nan nan nan nan nan nan nan nan nan nan nan nan nan nan 44 40 36 35 34 33 30 30 31 30 30 32 33 34 34 34 29 26 25 24 24 23 22 22
Wind_Direction
279 276 276 276 279 284 290 297 296 296 289 280 278 278 281 271 269 265 255 245 241 241 241 243 248 251 249 247 250 253 256 255 254 259 265 265 262 263 261 263 265 267
274 272 269 267 268 271 278 287 293 294 293 286 276 270 271 278 277 261 252 246 240 240 244 247 249 252 251 247 248 253 255 257 258 259 266 271 265 264 263 266 266 263
265 267 267 268 270 273 276 281 290 298 301 298 286 278 273 272 277 260 240 241 242 246 250 248 248 252 253 252 254 256 259 263 263 266 272 272 263 259 256 259 259 263
260 262 264 266 269 277 281 287 294 301 306 306 307 298 289 278 276 267 253 253 252 247 243 242 242 247 252 255 258 259 262 265 264 267 264 261 264 268 266 262 260 259
252 252 260 273 286 294 298 304 308 307 310 315 310 307 301 296 292 270 259 256 256 249 245 244 243 246 252 256 261 261 263 265 269 273 274 263 258 262 262 261 261 261
278 284 289 294 296 296 298 305 307 306 307 305 311 303 301 298 293 288 281 272 258 253 249 246 243 241 249 256 260 261 264 268 272 272 268 266 265 263 259 261 260 259
300 293 287 279 280 284 287 287 282 284 286 289 289 297 291 288 285 283 282 277 269 259 254 250 246 241 242 247 253 257 257 265 272 272 269 265 263 263 261 260 257 258
310 298 292 281 279 279 284 284 284 287 287 278 286 290 290 288 282 276 278 282 280 274 262 255 250 247 248 245 245 245 250 256 266 269 265 260 261 258 258 256 259 259
273 295 300 297 286 276 279 280 281 285 287 290 287 282 286 291 290 285 286 287 288 284 275 259 251 250 248 243 239 242 249 257 259 263 263 263 263 261 260 258 259 259
282 281 291 297 292 278 282 280 273 270 275 284 287 279 279 284 289 290 285 283 285 283 283 276 264 256 255 250 246 245 246 256 260 265 269 271 269 266 263 262 261 261
281 286 294 297 294 276 268 253 245 247 256 268 272 275 277 275 276 279 279 276 275 278 284 291 290 284 277 270 260 260 260 260 268 273 276 275 275 272 271 268 268 267
267 278 287 293 295 289 282 271 263 259 255 251 257 259 261 270 273 268 272 277 278 278 281 290 293 293 291 286 280 277 275 271 272 273 275 274 273 270 273 274 275 277
258 263 268 277 285 286 280 273 271 271 276 284 272 254 249 249 254 264 268 273 276 280 280 282 289 292 290 290 285 280 278 276 273 272 268 268 270 272 274 279 286 290
244 254 259 262 270 277 279 275 274 278 286 300 302 275 243 240 251 257 264 272 274 276 275 272 273 279 281 281 279 277 273 270 272 274 273 272 275 283 293 302 311 315
237 242 252 257 259 266 272 274 274 278 281 294 307 293 257 244 244 249 256 265 268 269 269 264 259 258 261 268 268 268 266 268 274 280 281 287 293 306 322 327 328 329
238 240 245 252 257 261 266 269 271 273 277 281 293 298 280 260 254 252 255 259 262 263 263 260 256 245 250 277 270 257 260 258 265 274 286 296 303 312 322 333 337 335
nan 240 241 245 252 258 261 266 267 269 271 272 275 281 282 276 266 255 252 256 262 264 265 264 260 252 260 268 272 275 258 258 265 273 285 297 302 308 320 326 331 335
nan nan 240 242 246 249 255 263 268 269 269 269 269 270 274 277 276 264 253 255 261 264 263 262 262 264 271 271 270 271 262 251 252 259 275 289 300 306 312 319 326 328
nan nan nan nan 244 247 249 253 261 267 269 269 269 268 266 269 271 267 257 256 262 265 261 258 256 266 275 275 272 272 272 253 239 248 259 271 286 301 310 317 320 320
nan nan nan nan nan 248 250 250 253 258 264 268 268 268 268 265 265 267 265 263 264 266 261 255 259 264 276 276 274 272 271 261 240 245 247 255 269 281 292 305 314 314
nan nan nan nan nan nan nan nan 252 253 257 261 264 266 267 267 266 265 267 267 265 266 263 259 257 269 275 278 278 277 272 261 243 244 242 243 252 263 274 286 293 300
nan nan nan nan nan nan nan nan nan nan 253 256 260 262 264 265 264 263 263 265 267 268 267 263 262 275 280 280 281 278 274 257 247 244 245 245 247 253 260 265 270 279
nan nan nan nan nan nan nan nan nan nan nan nan nan nan 259 261 261 260 259 262 264 266 266 262 259 268 278 280 279 278 268 256 251 242 241 245 248 251 254 258 262 267
nan nan nan nan nan nan nan nan nan nan nan nan nan nan nan nan nan 257 256 259 261 262 264 259 256 259 268 272 276 277 272 262 255 248 242 242 244 249 253 255 259 277
nan nan nan nan nan nan nan nan nan nan nan nan nan nan nan nan nan 256 255 255 257 258 257 257 255 256 265 269 274 277 276 265 260 252 245 241 243 246 252 254 255 260
nan nan nan nan nan nan nan nan nan nan nan nan nan nan nan nan nan nan 253 252 250 252 254 254 252 254 262 269 269 272 281 273 267 261 254 248 245 246 248 251 253 254